Location: Limerick
(52.6650°N, 8.6230°W)
Time: 19:48:16
(UTC+01:00)

ISS - Pass Details

Date: 19 July 2017
Orbit: 400 x 408 km, 51.6° (Epoch: 21 July)

Event Time Altitude Azimuth Distance (km) Brightness Sun altitude
Exits shadow 02:43:35 27° 241° (WSW) 815 -2.7 -15.2°
Maximum altitude 02:45:09 63° 168° (SSE) 454 -3.9 -15.2°
Drops below altitude 10° 02:48:23 10° 87° (E) 1,458 -0.8 -15.0°
Sets 02:50:29 0° 84° (E) 2,320 0.3 -15.0°
